Location: Kerguer�zec
(48.4509°N, 4.7600°W)
Time: 06:13:10
(UTC+00:00)

STARLINK-1269 - Pass Details

Date: 09 April 2020
Orbit: 549 x 550 km, 53.0° (Epoch: 29 May)

Event Time Altitude Azimuth Distance (km) Brightness Sun altitude
Rises 21:15:29 0° 295° (WNW) 2,726 8.6 -20.5°
Reaches altitude 10° 21:17:45 10° 291° (WNW) 1,830 7.3 -20.8°
Maximum altitude 21:21:49 56° 214° (SW) 661 3.9 -21.3°
Enters shadow 21:22:07 54° 195° (SSW) 672 3.8 -21.3°
